Stations météo

Publicité
Le Havre/Octeville, France (7046): Température de l'air & dewpoint: 18.05.2017 11:00:00 - 24.05.2017 11:00:00 (CEST)Le Havre/Octeville, France (7046): Vitesse du vent & gusts: 18.05.2017 11:00:00 - 24.05.2017 11:00:00 (CEST)Le Havre/Octeville, France (7046): Direction du vent: 18.05.2017 11:00:00 - 24.05.2017 11:00:00 (CEST)Le Havre/Octeville, France (7046): reduced air pressure: 18.05.2017 11:00:00 - 24.05.2017 11:00:00 (CEST)Le Havre/Octeville, France (7046): visibility: 18.05.2017 11:00:00 - 24.05.2017 11:00:00 (CEST)Le Havre/Octeville, France (7046): Quantités de précipitations: 18.05.2017 11:00:00 - 24.05.2017 11:00:00 (CEST)
Date & Time tt [°C] td [°C] ff [km/h] ff [knt] fx [km/h] fx [knt] dd ppp [hPa] vv [km] rr [mm]
24.05.2017 11:00:00 14,3 14,3 5 3 10 5 W 1027,5 0,1 0,0
24.05.2017 10:00:00 13,9 13,9 5 3 11 6 W 1027,4 0,1 0,0
24.05.2017 09:00:00 13,6 13,6 8 5 11 6 SW 1027,2 0,3 0,0
24.05.2017 08:00:00 13,5 13,5 6 4 10 5 SW 1026,7 0,1 0,0
24.05.2017 07:00:00 13,4 13,4 6 4 11 6 W 1026,5 0,1 0,0
24.05.2017 06:00:00 13,3 13,3 9 5 13 7 W 1026,0 0,1 0,2
24.05.2017 05:00:00 13,2 13,2 9 5 16 9 W 1025,9 0,1 0,0
24.05.2017 04:00:00 13,2 13,2 12 6 17 9 WNW 1026,0 0,4 0,0
24.05.2017 03:00:00 13,0 13,0 9 5 14 7 WNW 1026,1 0,7 0,0
24.05.2017 02:00:00 12,8 12,8 12 6 16 9 W 1026,1 0,1 0,0
24.05.2017 01:00:00 13,3 13,1 12 6 16 9 NW 1026,1 0,3 0,0
24.05.2017 00:00:00 13,4 13,1 11 6 17 9 NW 1026,1 7 0,0
23.05.2017 23:00:00 13,5 13,2 11 6 16 8 WNW 1026,1 9 0,0
23.05.2017 22:00:00 14,2 13,6 9 5 12 7 W 1025,7 15 0,0
23.05.2017 21:00:00 14,9 13,8 9 5 18 10 NW 1025,2 20 0,0
23.05.2017 20:00:00 15,8 14,2 9 5 21 11 NW 1025,2 48 0,0
23.05.2017 19:00:00 15,9 13,7 14 8 20 11 WNW 1025,0 54 0,0
23.05.2017 18:00:00 17,0 12,9 11 6 17 9 WNW 1024,8 60 0,0
23.05.2017 17:00:00 16,5 13,0 10 5 18 10 WNW 1024,8 59 0,0
23.05.2017 16:00:00 15,9 12,5 13 7 19 10 NW 1024,9 20 0,0
23.05.2017 15:00:00 16,4 11,8 13 7 20 11 W 1024,7 60 0,0
23.05.2017 14:00:00 16,2 12,2 14 8 24 13 W 1024,5 20 0,0
23.05.2017 13:00:00 15,2 12,0 10 6 23 12 W 1024,7 18 0,0
23.05.2017 12:00:00 14,8 12,1 14 8 25 13 W 1024,4 26 0,0
23.05.2017 11:00:00 14,6 12,5 19 10 24 13 W 1023,8 18 0,0
23.05.2017 10:00:00 14,6 12,3 13 7 19 10 WSW 1022,9 20 0,0
23.05.2017 09:00:00 14,2 12,2 13 7 21 12 WSW 1022,4 18 0,0
23.05.2017 08:00:00 13,6 12,0 15 8 26 14 W 1021,9 19 0,0
23.05.2017 07:00:00 12,7 11,4 16 9 28 15 W 1021,2 19 0,0
23.05.2017 06:00:00 12,5 11,6 15 8 33 18 W 1020,7 18 0,0
23.05.2017 05:00:00 12,9 12,1 15 8 29 15 W 1020,2 14 0,0
23.05.2017 04:00:00 13,2 12,6 19 10 29 16 W 1019,9 13 0,0
23.05.2017 03:00:00 13,2 12,6 21 11 30 16 WSW 1019,3 12 0,0
23.05.2017 02:00:00 13,0 12,4 23 12 32 17 SW 1018,9 13 0,0
23.05.2017 01:00:00 12,7 11,9 12 7 22 12 WSW 1018,7 12 0,0
23.05.2017 00:00:00 13,0 12,2 16 8 29 16 WNW 1018,5 14 0,0
22.05.2017 23:00:00 13,6 12,3 21 11 28 15 WNW 1018,2 20 0,0
22.05.2017 22:00:00 13,9 11,6 21 11 35 19 NW 1017,4 33 0,0
22.05.2017 21:00:00 18,0 11,8 9 5 13 7 NW 1016,0 20 0,0
22.05.2017 20:00:00 21,4 13,8 9 5 12 7 WNW 1015,2 60 0,0
22.05.2017 19:00:00 23,7 12,7 8 4 14 8 W 1014,9 60 0,0
22.05.2017 18:00:00 23,8 12,1 10 5 19 10 WSW 1014,9 60 0,0
22.05.2017 17:00:00 23,7 12,7 9 5 18 10 WSW 1015,1 59 0,0
22.05.2017 16:00:00 23,5 12,5 7 4 23 13 S 1015,4 20 0,0
22.05.2017 15:00:00 22,9 11,3 14 8 29 16 SE 1015,5 20 0,0
22.05.2017 14:00:00 22,1 9,3 17 9 28 15 ESE 1015,7 57 0,0
22.05.2017 13:00:00 21,0 10,5 14 8 30 16 ESE 1015,9 60 0,0
22.05.2017 12:00:00 19,9 10,0 19 10 31 17 ESE 1016,1 53 0,0
22.05.2017 11:00:00 18,1 10,2 13 7 27 14 ESE 1016,5 52 0,0
22.05.2017 10:00:00 17,1 9,0 14 8 26 14 ESE 1017,2 59 0,0
22.05.2017 09:00:00 15,9 8,4 16 9 27 14 E 1016,9 60 0,0
22.05.2017 08:00:00 13,4 9,1 11 6 20 11 E 1016,5 55 0,0
22.05.2017 07:00:00 11,5 8,0 11 6 15 8 E 1016,8 38 0,0
22.05.2017 06:00:00 10,6 8,0 10 6 16 9 ENE 1017,1 60 0,0
22.05.2017 05:00:00 10,6 8,2 11 6 15 8 ENE 1017,5 60 0,0
22.05.2017 04:00:00 11,2 8,2 10 5 15 8 ENE 1017,8 60 0,0
22.05.2017 03:00:00 11,7 8,5 9 5 14 7 E 1018,5 60 0,0
22.05.2017 02:00:00 12,9 9,0 11 6 16 9 E 1018,8 60 0,0
22.05.2017 01:00:00 14,1 9,3 10 5 14 8 E 1019,4 60 0,0
22.05.2017 00:00:00 14,6 9,0 8 4 12 6 E 1019,6 60 0,0
21.05.2017 23:00:00 15,9 8,6 9 5 21 11 E 1019,7 60 0,0
21.05.2017 22:00:00 18,6 8,5 12 7 31 17 ESE 1019,5 60 0,0
21.05.2017 21:00:00 19,6 9,2 16 9 33 18 ESE 1019,5 60 0,0
21.05.2017 20:00:00 20,6 8,6 20 11 34 18 ESE 1019,9 49 0,0
21.05.2017 19:00:00 20,7 9,0 20 11 32 17 E 1020,3 59 0,0
21.05.2017 18:00:00 20,9 9,2 18 10 32 17 ESE 1020,8 60 0,0
21.05.2017 17:00:00 20,6 8,9 14 8 34 18 SE 1021,5 60 0,0
21.05.2017 16:00:00 19,3 10,8 12 6 27 14 W 1022,4 19 0,0
21.05.2017 15:00:00 19,2 8,2 13 7 31 17 SE 1023,1 60 0,0
21.05.2017 14:00:00 18,9 7,9 16 9 32 17 SE 1023,8 60 0,0
21.05.2017 13:00:00 18,3 8,3 14 8 30 16 SE 1024,5 19 0,0
21.05.2017 12:00:00 16,8 8,0 13 7 25 14 SSE 1025,0 60 0,0
21.05.2017 11:00:00 16,8 9,0 14 7 27 15 SSE 1025,3 20 0,0
21.05.2017 10:00:00 15,4 9,3 11 6 21 11 SE 1025,7 20 0,0
21.05.2017 09:00:00 13,8 8,6 13 7 19 11 ESE 1025,7 20 0,0
21.05.2017 08:00:00 11,7 9,3 10 5 14 7 E 1025,5 11 0,0
21.05.2017 07:00:00 8,9 8,1 9 5 10 6 E 1025,5 19 0,0
21.05.2017 06:00:00 8,3 7,7 8 5 10 5 E 1025,4 16 0,0
21.05.2017 05:00:00 9,0 8,2 7 4 10 5 E 1025,2 27 0,0
21.05.2017 04:00:00 9,4 8,8 6 3 8 4 E 1025,3 30 0,0
21.05.2017 03:00:00 9,2 7,6 4 2 5 3 E 1025,5 43 0,0
21.05.2017 02:00:00 9,8 7,6 0 0 5 3 N 1025,5 60 0,0
21.05.2017 01:00:00 11,5 8,5 3 2 6 4 E 1025,5 60 0,0
21.05.2017 00:00:00 11,7 8,7 3 2 10 5 W 1025,3 60 0,0
20.05.2017 23:00:00 11,7 8,5 6 3 11 6 W 1025,1 60 0,0
20.05.2017 22:00:00 12,5 8,6 8 4 16 9 WNW 1024,4 60 0,0
20.05.2017 21:00:00 13,1 7,7 8 4 11 6 WSW 1023,8 60 0,0
20.05.2017 20:00:00 13,6 8,0 6 3 10 6 WSW 1023,6 20 0,0
20.05.2017 19:00:00 13,6 8,4 6 4 15 8 W 1023,1 60 0,0
20.05.2017 18:00:00 15,7 8,2 8 5 21 12 W 1022,6 19 0,0
20.05.2017 17:00:00 15,4 8,4 13 7 20 11 W 1022,3 60 0,0
20.05.2017 16:00:00 14,7 8,4 11 6 21 11 W 1022,2 60 0,0
20.05.2017 15:00:00 13,6 9,6 11 6 26 14 WNW 1021,8 40 0,0
20.05.2017 14:00:00 15,3 8,1 12 7 23 13 SW 1021,3 31 0,0
20.05.2017 13:00:00 14,4 8,6 14 8 27 14 SSW 1021,1 18 0,0
20.05.2017 12:00:00 14,1 9,1 15 8 28 15 SSW 1020,7 20 0,0
20.05.2017 11:00:00 12,9 8,6 17 9 28 15 SSW 1020,4 38 0,0
20.05.2017 10:00:00 11,7 8,0 17 9 27 14 SSW 1019,7 52 0,0
20.05.2017 09:00:00 10,7 7,6 16 9 25 13 S 1019,1 49 0,0
20.05.2017 08:00:00 10,3 7,5 12 7 23 12 S 1018,6 58 0,0
20.05.2017 07:00:00 9,3 7,6 14 8 22 12 SSW 1018,2 29 0,0
20.05.2017 06:00:00 9,2 7,8 12 7 19 11 SSW 1017,6 50 0,0
20.05.2017 05:00:00 9,4 8,2 13 7 22 12 SSW 1017,3 37 0,0
20.05.2017 04:00:00 9,7 8,1 16 9 25 13 SW 1017,2 54 0,0
20.05.2017 03:00:00 10,0 8,3 16 8 28 15 SW 1016,9 56 0,0
20.05.2017 02:00:00 10,2 8,6 13 7 19 10 SSW 1017,0 55 0,0
20.05.2017 01:00:00 10,3 8,1 13 7 19 10 SSW 1016,8 60 0,0
20.05.2017 00:00:00 10,0 8,1 3 2 8 4 SW 1016,6 60 0,0
19.05.2017 23:00:00 9,7 7,5 5 3 16 8 NW 1016,4 60 0,0
19.05.2017 22:00:00 10,0 7,1 8 4 15 8 WSW 1016,0 60 0,0
19.05.2017 21:00:00 11,0 7,5 9 5 21 11 SSW 1015,6 60 0,0
19.05.2017 20:00:00 12,0 7,1 10 5 16 9 SSW 1015,2 60 0,0
19.05.2017 19:00:00 12,9 7,6 8 4 18 10 S 1014,9 60 0,0
19.05.2017 18:00:00 11,4 7,3 14 7 20 11 S 1015,0 60 0,0
19.05.2017 17:00:00 12,6 7,3 10 6 24 13 S 1014,9 20 0,0
19.05.2017 16:00:00 11,9 7,6 15 8 23 13 S 1015,0 60 0,0
19.05.2017 15:00:00 12,0 7,7 12 6 22 12 WSW 1014,8 60 0,0
19.05.2017 14:00:00 13,0 7,4 16 9 28 15 W 1014,6 55 0,0
19.05.2017 13:00:00 11,6 8,4 13 7 38 21 SW 1015,0 60 0,2
19.05.2017 12:00:00 13,4 10,0 21 11 32 17 WSW 1014,6 19 0,0
19.05.2017 11:00:00 12,0 9,9 20 11 31 17 SW 1014,3 36 0,0
19.05.2017 10:00:00 11,4 9,6 22 12 33 18 SW 1014,2 38 0,0
19.05.2017 09:00:00 11,4 9,8 22 12 33 18 SW 1013,7 60 0,0
19.05.2017 08:00:00 10,8 9,4 20 11 34 18 WSW 1013,4 31 0,0
19.05.2017 07:00:00 10,4 9,3 21 11 37 20 WSW 1012,9 40 0,0
19.05.2017 06:00:00 10,5 9,6 21 12 37 20 WSW 1012,7 31 0,0
19.05.2017 05:00:00 10,4 9,5 24 13 39 21 WSW 1012,8 20 1,6
19.05.2017 04:00:00 10,5 9,6 26 14 42 23 WSW 1012,8 11 0,2
19.05.2017 03:00:00 10,7 9,5 25 13 43 23 WSW 1012,6 37 0,0
19.05.2017 02:00:00 10,7 9,5 23 12 37 20 WSW 1012,8 38 0,0
19.05.2017 01:00:00 10,7 9,0 24 13 44 24 WSW 1013,0 39 0,0
19.05.2017 00:00:00 10,8 8,7 23 13 37 20 W 1013,1 42 0,0
18.05.2017 23:00:00 10,5 8,4 24 13 39 21 W 1013,0 20 0,2
18.05.2017 22:00:00 10,0 8,8 21 11 35 19 WNW 1012,8 16 1,0
18.05.2017 21:00:00 9,9 8,8 20 11 39 21 WNW 1012,7 9 1,6
18.05.2017 20:00:00 9,7 8,8 23 12 36 20 WNW 1012,4 9 1,4
18.05.2017 19:00:00 9,6 8,8 22 12 39 21 WNW 1012,5 6 2,6
18.05.2017 18:00:00 9,6 8,8 23 13 36 20 NW 1012,6 9 1,4
18.05.2017 17:00:00 9,6 9,0 23 12 39 21 NW 1012,7 20 0,6
18.05.2017 16:00:00 9,5 9,4 26 14 39 21 NW 1013,1 10 1,8
18.05.2017 15:00:00 9,4 9,4 27 14 42 23 NW 1013,0 9 4,3
18.05.2017 14:00:00 10,2 10,2 22 12 33 18 NW 1013,1 1,3 1,8
18.05.2017 13:00:00 10,6 10,6 17 9 27 14 NNW 1012,8 9 0,0
18.05.2017 12:00:00 10,7 10,7 17 9 27 15 N 1013,2 14 0,2
18.05.2017 11:00:00 10,8 10,8 16 9 26 14 NNW 1013,4 2,0 0,0

tt = Température de l'air
td = dewpoint
ff = Vitesse du vent
fx = gusts
dd = Direction du vent
ppp = reduced air pressure
vv = visibility
rr = Quantités de précipitations

stations d'obs. à proximité